Regional Weather Roundup
Issued by NWS Cleveland, OH

Home | Current Version | Previous Version | Graphics & Text | Print | Product List | Glossary On
Versions: 1 2 3 4 5 6 7 8 9 10 11 12 13 14 15 16 17 18 19 20 21 22 23 24 25 26 27 28 29 30 31 32 33 34 35 36 37 38 39 40 41 42 43 44 45 46 47 48 49 50
583
ASUS41 KCLE 301210
RWRCLE
OHIO REGIONAL WEATHER ROUNDUP
NATIONAL WEATHER SERVICE CLEVELAND, OH
800 AM EDT MON MAY 30 2016

NOTE: "FAIR" INDICATES FEW OR NO CLOUDS BELOW 12,000 FEET WITH NO
SIGNIFICANT WEATHER AND/OR OBSTRUCTIONS TO VISIBILITY.

OHZ001>008-015>018-024>027-034-035-043-044-301300-
   NORTHWEST OHIO

CITY           SKY/WX    TMP DP  RH WIND       PRES   REMARKS
DEFIANCE       SUNNY     68  58  70 SW5       30.03S
FINDLAY        SUNNY     68  58  70 CALM      30.03R
TOLEDO EXPRESS SUNNY     67  57  70 W7        30.02R
TOLEDO EXEC    SUNNY     67  57  70 SW7       30.03R
LIMA           MOSUNNY   67  59  75 SW3       30.05R
$$

OHZ009>014-019>023-028>033-038-089-301300-
   NORTHEAST OHIO

CITY           SKY/WX    TMP DP  RH WIND       PRES   REMARKS
CLE-HOPKINS    MOSUNNY   68  61  78 SW5       30.03S
CLE-LAKEFRONT  SUNNY     70  61  73 SW6       30.00S
CUY CO. ARPT   MOSUNNY   70  63  78 W6        30.02R
LORAIN-ELYRIA  SUNNY     67  60  78 W3        30.02S
ASHTABULA      MOSUNNY   66  62  87 W6        30.02R
AKRON-CANTON   MOSUNNY   67  62  84 NW5       30.03S
WOOSTER        SUNNY     68  61  78 N7        30.04R
MANSFIELD      SUNNY     68  61  78 CALM      30.04S
YOUNGSTOWN     PTSUNNY   67  62  84 W6        30.02S
$$

OHZ042-051>053-060>062-070>072-077>081-301300-
  SOUTHWEST OHIO

CITY           SKY/WX    TMP DP  RH WIND       PRES   REMARKS
CINC-COVINGTON MOSUNNY   69  65  86 CALM      30.05S
CINC-LUNKEN    SUNNY     66  66 100 CALM      30.05S
HAMILTON       SUNNY     70  65  84 CALM      30.06R
DAYTON         MOSUNNY   69  60  73 NW5       30.07R
WRIGHT-PAT AFB MOSUNNY   66  66 100 CALM      30.05S
DAYTON GENERAL SUNNY     68  63  84 W3        30.05S
WILMINGTON     MOSUNNY   66  63  90 W7        30.05R
$$

OHZ036-037-039>041-045>050-054>059-063>069-073>076-082>088-301300-
  CENTRAL AND SOUTHEAST OHIO

CITY           SKY/WX    TMP DP  RH WIND       PRES   REMARKS
COLUMBUS       PTSUNNY   66  63  90 CALM      30.03R
OSU AIRPORT    MOSUNNY   69  62  78 N5        30.03S
BOLTON FIELD   NOT AVBL
RICKENBACK AFB MOSUNNY   66  64  91 NW3       30.03R
NEWARK         CLOUDY    67  62  84 CALM      30.02S
MARION         SUNNY     66  62  87 CALM      30.04S
LANCASTER      MOSUNNY   67  63  87 CALM      30.03S
ZANESVILLE     CLOUDY    69  61  75 W5        30.03S
NEW PHILLY     MOSUNNY   68  63  84 CALM      30.03S
$$




USA.gov is the U.S. government's official web portal to all federal, state and local government web resources and services.